Location: Madden
(51.3728°N, 114.3297°W)
Time: 11:34:20
(UTC+00:00)

Envisat - Pass Details

Date: 25 April 2024
Orbit: 762 x 764 km, 98.3° (Epoch: 26 May)

Event Time Altitude Azimuth Distance (km) Brightness Sun altitude
Rises 10:47:29 0° 17° (NNE) 3,242 7.3 -13.0°
Reaches altitude 10° 10:49:51 10° 22° (NNE) 2,311 6.5 -12.7°
Maximum altitude 10:54:52 57° 101° (E) 903 3.6 -12.1°
Drops below altitude 10° 10:59:50 10° 179° (S) 2,293 5.1 -11.5°
Enters shadow 11:01:28 - 183° (S) 2,935 5.6 -11.3°
